map of DAD home
Great Circle Mapper logo
DAD - Airport
Location
City:  Da Nang, Vietnam
Name:Da Nang International Airport
ICAO / IATA:VVDN / DAD

Details
Type:Airport (Aerodrome, Airfield)
Use:Public/Civil, Military, International (customs port of entry)
Latitude:1602'38"N (16.043917)
Longitude:10811'58"E (108.199370)
Datum:WGS 1984
Elevation:33 ft (10 m)
Runways:2
Longest:10000 × 148 ft (3048 × 45 m), paved

Time
Time Zone:UTC+7
Local Time:

Weather
METAR:VVDN 220700Z 11008KT 060V140 9999 FEW017TCU SCT300 34/23 Q1008 NOSIG
TAF:VVDN 220500Z 2206/2306 12008KT 9999 FEW015 SCT300
BECMG 2206/2207 SCT013 FEW015CB BKN050
TEMPO 2208/2210 2500 TSRA
TEMPO 2211/2215 4000 TSRA
BECMG 2216/2217 SCT013 SCT050

Related Locations
Nearby:
Farthest:SPVR: 12447 mi / 20031 km
Vitor, PE

Find:

   beyond  
but within

Other Information
Maps:
NOTAMs:
Links:
Sources:

  
flag of Vietnam   

Airport Diagram

Airport diagram for DAD

Airport diagram (OBSOLETE) from NGA

Sectional Chart

Flight Planning
at skyvector.com

Satellite Image

Google Maps Satellite View

 

Copyright © 2004-2014 Karl L. Swartz. All rights reserved.
The Great Circle Mapper name and logo are trademarks of the Great Circle Mapper.
All other trademarks mentioned herein belong to their respective owners.
Please see credits for attibutions and further copyright information.

  Follow gcmap on Facebook Follow gcmap on Twitter

hCard Microformat

Geo Microformat